Regional Weather Roundup
Issued by NWS Boston, MA

Current Version | Previous Version | Text Only | Print | Product List | Glossary Off
Versions: 1 2 3 4 5 6 7 8 9 10 11 12 13 14 15 16 17 18 19 20 21 22 23 24 25 26 27 28 29 30 31 32 33 34 35 36 37 38 39 40 41 42 43 44 45 46 47 48 49 50
000 ASUS41 KBOX 181110 RWRBOX REGIONAL WEATHER ROUNDUP NATIONAL WEATHER SERVICE BOSTON/NORTON MA 700 AM EDT THU OCT 18 2018 NOTE: "FAIR" INDICATES FEW OR NO CLOUDS BELOW 12,000 FEET WITH NO SIGNIFICANT WEATHER AND/OR OBSTRUCTIONS TO VISIBILITY. MAZALL-181200- EASTERN MASSACHUSETTS CITY SKY/WX TMP DP RH WIND PRES REMARKS BOSTON FAIR 39 20 46 NW15G29 30.13R WCI 31 BEVERLY FAIR 36 23 59 NW16 30.10R WCI 26 LAWRENCE FAIR 38 23 55 W13G21 30.13R WCI 30 BEDFORD FAIR 36 19 50 NW13 30.12R WCI 27 BLUE HILL N/A 33 20 58 NW14G29 30.09R WCI 23 NORWOOD FAIR 39 21 48 W18G26 30.12R WCI 30 MARSHFIELD FAIR 39 23 52 NW9G18 30.12R PLYMOUTH FAIR 38 22 52 W12G21 30.12R WCI 30 TAUNTON FAIR 39 19 44 NW8G18 30.14R NEW BEDFORD FAIR 38 25 59 W12 30.13R WCI 30 $$ MAZALL-181200- CAPE COD AND THE ISLANDS CITY SKY/WX TMP DP RH WIND PRES REMARKS FALMOUTH FAIR 37 21 52 NW13G21 30.12R WCI 29 HYANNIS FAIR 39 23 52 NW13G23 30.10R WCI 31 CHATHAM MOCLDY 41 21 44 NW13G25 30.09R PROVINCETOWN MOCLDY 41 26 55 NW29G40 30.09R WCI 30 NANTUCKET FAIR 42 19 39 NW28G39 30.10R WCI 32 MARTHAS VNYRD MOCLDY 41 20 43 NW18G32 30.12R $$ MAZALL-181200- CENTRAL AND WESTERN MASSACHUSETTS CITY SKY/WX TMP DP RH WIND PRES REMARKS WORCESTER FAIR 32 17 54 NW18G25 30.11R WCI 20 FITCHBURG FAIR 33 18 53 NW12G20 30.14R WCI 24 ORANGE FAIR 34 18 52 NW13G22 30.16R WCI 25 SPRINGFIELD PTCLDY 35 19 52 W10 30.17R WCI 27 WESTFIELD FAIR 35 19 52 NW13G18 30.19R WCI 26 NORTH ADAMS CLOUDY 31 22 69 W7 30.21R WCI 24 PITTSFIELD FAIR 30 19 63 W14G20 30.18R WCI 19 $$ RIZALL-181200- RHODE ISLAND CITY SKY/WX TMP DP RH WIND PRES REMARKS PROVIDENCE FAIR 38 20 48 NW15G22 30.16R WCI 29 NEWPORT FAIR 40 21 46 NW18G29 30.15R WCI 31 BLOCK ISLAND FAIR 41 24 51 NW15G30 30.18R SMITHFIELD FAIR 34 21 59 NW12 30.15R WCI 25 WESTERLY FAIR 39 25 57 VRB5 30.19R $$ CTZALL-181200- CONNECTICUT CITY SKY/WX TMP DP RH WIND PRES REMARKS BRADLEY INTL FAIR 35 19 52 NW6G16 30.20R WCI 30 HARTFORD FAIR 38 18 44 NW12G20 30.22R WCI 30 BRIDGEPORT FAIR 39 30 70 NW6 30.24R DANBURY FAIR 39 27 62 NW8 30.24R GROTON FAIR 40 20 44 NW21G30 30.20R WCI 30 NEW HAVEN FAIR 41 27 57 NW10 30.24R CHESTER FAIR 37 19 48 NW12G24 30.21R WCI 30 MERIDEN FAIR 38 20 48 NW13G23 30.24R WCI 30 WILLIMANTIC FAIR 37 21 52 W15G21 30.19R WCI 28 OXFORD FAIR 36 21 54 NW10G25 30.22R WCI 28 $$ MEZ002-015-021-024-NHZ003-005-008-011-012-014-VTZ005-008-181200- NORTHERN NEW ENGLAND CITY SKY/WX TMP DP RH WIND PRES REMARKS PORTLAND ME MOCLDY 34 27 75 W13 30.04R WCI 25 BANGOR ME FAIR 33 21 61 NW8 29.91R WCI 26 CONCORD NH FAIR 33 21 61 NW17G26 30.11R WCI 22 MANCHESTER NH FAIR 35 22 58 VRB6 30.11R WCI 30 NASHUA NH FAIR 35 20 54 NW15G24 30.13R WCI 25 PORTSMOUTH NH PTCLDY 35 23 61 W13 30.07R WCI 26 JAFFREY NH FAIR 32 18 56 NW10G28 30.11R WCI 24 KEENE NH FAIR 32 18 56 VRB3 30.16R BURLINGTON VT MOCLDY 34 20 56 NW14G24 30.19R WCI 25 MT. WASHINGTON SNOW 9 9 100 NW72G85 N/A VSB 0 WCI -23 $$ NYZ052-076-181200- EASTERN NEW YORK CITY SKY/WX TMP DP RH WIND PRES REMARKS ALBANY FAIR 33 20 58 NW13 30.27R WCI 24 NEW YORK CITY FAIR 44 27 51 NW18 30.27R $$ ANZALL-181200- MARINE OBSERVATIONS STATION/POSITION TIME TEMP WIND PRES VSBY WAVE AIR SEA DIR/SP/G HT/PER (UTC) (F) (DEG/KT/KT) (MB) (MI) (FT/S) BOSTON BUOY 1050 41 58 300/ 25/ 31 1018.3R 4/ 4 BUZZARDS BAY 1000 43 300/ 32/ 35 1019.8R NANTUCKET SOUND 1050 44 61 310/ 25/ 35 1019.5R 4/ 4 MASS BAY-STELLWA 1004 41 57 300/ 23/ 29 1016.9R 1 7/8 3/ 4 ISLE OF SHOALS 1000 38 280/ 25/ 30 1016.7R S OF BLOCK IS 1043 63 N/A 8/ 7 $$ ......................KEY......................... SKY/WX - SKY CONDITION/PRESENT WEATHER TMP - TEMPERATURE IN FAHRENHEIT DWPT - DEWPOINT IN FAHRENHEIT RH - RELATIVE HUMIDITY IN PERCENT WIND - DIRECTION AND SPEED IN MPH PRES - MEAN SEA LEVEL PRESSURE IN INCHES OF HG WCI - WIND CHILL INDEX VSB - VISIBILITY IN MILES HX - HEAT INDEX TC - TEMPERATURE IN CELSIUS VRB - VARIABLE WIND DIRECTION N/A - NOT AVAILABLE

USA.gov is the U.S. government's official web portal to all federal, state and local government web resources and services.